Hourly Data Report for October 16, 2014

All times are specified in Local Standard Time (LST). Add 1 hour to adjust for Daylight Saving Time where and when it is observed.

BATHURST A
NEW BRUNSWICK

47°37'47.000" N
65°44'20.000" W
58.80 m
8100505
71574
ZBF

Download Data

Hourly Data (October 2014)
Hourly Data Report for October 16, 2014
Temp Definition
°C
Dew Point Temp Definition
°C
Rel Hum Definition
%
Wind Dir Definition
10's deg

Wind Spd Definition
km/h
Visibility Definition
km
Stn Press Definition
kPa
Hmdx Definition


Wind Chill Definition


Weather Definition


TIME
00:00 Legend Double Dagger 10.0 9.4 96 9 6 16.1 101.41     Moderate Rain
01:00 Legend Double Dagger 9.5 8.6 94 12 14 19.3 101.42     Rain
02:00 Legend Double Dagger 9.0 8.4 96 10 14 16.1 101.35     Rain
03:00 Legend Double Dagger 9.0 8.3 95 8 9 24.1 101.37     Moderate Rain
04:00 Legend Double Dagger 8.6 8.0 96 7 11 9.7 101.34     Rain,Fog
05:00 Legend Double Dagger 8.4 8.0 97 7 10 4.8 101.35     Rain,Fog
06:00 Legend Double Dagger 8.6 8.2 97 7 7 24.1 101.34     Rain
07:00 Legend Double Dagger 8.8 8.2 96 6 7 24.1 101.38     LegendNANA
08:00 Legend Double Dagger 9.1 8.5 96 5 10 16.1 101.39     Drizzle
09:00 Legend Double Dagger 9.0 8.1 94 6 9 24.1 101.43     LegendNANA
10:00 Legend Double Dagger 9.3 8.4 94 6 9 24.1 101.41     LegendNANA
11:00 Legend Double Dagger 9.6 8.8 95 4 8 12.9 101.40     Drizzle
12:00 Legend Double Dagger 9.6 9.2 97 5 9 6.4 101.37     Drizzle,Fog
13:00 Legend Double Dagger 9.7 9.1 96 7 10 4.8 101.34     Drizzle,Fog
14:00 Legend Double Dagger 9.7 9.3 97 9 12 1.6 101.32     Drizzle,Fog
15:00 Legend Double Dagger 9.9 9.5 97 8 9 12.9 101.32     Drizzle
16:00 Legend Double Dagger 9.6 9.2 97 6 10 2.4 101.30     Drizzle,Fog
17:00 Legend Double Dagger 9.2 8.8 97 7 12 12.9 101.29     Drizzle
18:00 Legend Double Dagger 9.1 8.7 97 6 10 12.9 101.28     Drizzle
19:00 Legend Double Dagger 9.2 8.8 97 6 8 24.1 101.25     Drizzle
20:00 Legend Double Dagger 9.1 8.8 98 4 7 2.4 101.21     Rain,Fog
21:00 Legend Double Dagger 9.2 8.9 98 3 7 4.8 101.16     Drizzle,Fog
22:00 Legend Double Dagger 9.3 9.2 99 4 10 2.4 101.06     Drizzle,Fog
23:00 Legend Double Dagger 9.5 9.4 99 3 7 4.8 101.00     Drizzle,Fog

Notes on Data Quality.

Legend

  • E = Estimated
  • M = Missing
  • NA = Not Available
  • ‡ = Partner data that is not subject to review by the National Climate Archives
Date modified: